Location: Castelbiague
(43.0361°N, 0.9246°E)
Time: 01:04:06
(UTC+00:00)

Cosmos 1980 - Visible Passes

Search period start: 24 October 2021 00:00
Search period end: 03 November 2021 00:00
Orbit: 840 x 846 km, 71.0° (Epoch: 23 October)

Date Brightness Start Highest point End Pass type
(mag) Time Alt. Az. Time Alt. Az. Time Alt. Az.
24 Oct 5.6 05:10:33 10° N 05:15:26 29° NE 05:20:18 10° ESE visible
25 Oct 5.6 04:55:58 10° N 05:00:47 28° NE 05:05:35 10° ESE visible
26 Oct 5.7 04:41:22 10° N 04:46:08 27° NE 04:50:52 10° ESE visible
27 Oct 5.7 04:26:46 10° N 04:31:28 26° NE 04:36:08 10° ESE visible
28 Oct 5.7 04:12:11 10° N 04:16:49 25° NE 04:21:25 10° ESE visible
28 Oct 3.9 05:55:43 10° NNW 06:01:14 55° WSW 06:06:44 10° S visible
28 Oct 5.8 19:04:28 10° S 19:04:58 12° S 19:04:58 12° S visible
29 Oct 5.8 03:57:36 10° N 04:02:08 24° NE 04:06:40 10° ESE visible
29 Oct 3.8 05:41:03 10° NNW 05:46:37 58° WSW 05:52:08 10° S visible
29 Oct 5.0 18:49:54 10° S 18:52:14 23° SSE 18:52:14 23° SSE visible
29 Oct 6.3 20:33:55 10° WSW 20:34:11 11° WSW 20:34:11 11° WSW visible
30 Oct 5.8 03:43:01 10° N 03:47:29 23° NE 03:51:55 10° ESE visible
30 Oct 3.7 05:26:24 10° NNW 05:31:59 61° WSW 05:37:32 10° S visible
30 Oct 4.4 18:35:21 10° SSE 18:39:28 33° SE 18:39:28 33° SE visible
30 Oct 5.7 20:19:12 10° WSW 20:21:25 22° WSW 20:21:25 22° WSW visible
31 Oct 5.8 03:28:25 10° N 03:32:49 22° NE 03:37:11 10° E visible
31 Oct 3.7 05:11:45 10° NNW 05:17:22 64° WSW 05:22:56 10° S visible
31 Oct 4.3 18:20:48 10° SSE 18:25:45 33° ESE 18:26:35 32° E visible
31 Oct 5.1 20:04:31 10° SW 20:08:31 34° W 20:08:31 34° W visible
01 Nov 5.9 03:14:54 14° N 03:18:09 22° NE 03:22:26 10° E visible
01 Nov 3.6 04:57:07 10° NNW 05:02:44 67° WSW 05:08:20 10° SSE visible
01 Nov 4.4 18:06:15 10° SSE 18:11:09 32° ESE 18:13:34 23° ENE visible
01 Nov 4.8 19:49:49 10° SW 19:55:05 39° WNW 19:55:29 39° NW visible
02 Nov 5.9 03:01:48 18° NNE 03:03:28 21° NE 03:07:40 10° E visible
02 Nov 3.6 04:43:44 17° NNW 04:48:06 70° WSW 04:53:44 10° SSE visible
02 Nov 4.4 17:51:42 10° SSE 17:56:32 30° ESE 18:00:23 15° NE visible
02 Nov 4.8 19:35:08 10° SW 19:40:26 41° WNW 19:42:17 32° NNW visible
